Location: ???????
(55.3754°N, 39.3545°E)
Time: 07:45:02
(UTC+00:00)

Terra - Pass Details

Date: 14 April 2026
Orbit: 688 x 691 km, 97.9° (Epoch: 13 May)

Event Time Altitude Azimuth Distance (km) Brightness Sun altitude
Exits shadow 17:36:03 - 168° (SSE) 2,764 4.5 -9.8°
Reaches altitude 10° 17:37:35 10° 170° (S) 2,139 3.9 -10.0°
Maximum altitude 17:42:16 75° 255° (WSW) 719 2.0 -10.5°
Drops below altitude 10° 17:46:59 10° 342° (NNW) 2,154 5.2 -11.1°
Sets 17:49:15 0° 345° (NNW) 3,075 6.0 -11.3°
